Location: Grandview
(34.8900°N, 117.1058°W)
Time: 10:41:53
(UTC-08:00)

Tiangong 2 - Pass Details

Date: 11 October 2017
Orbit: 387 x 389 km, 42.8° (Epoch: 18 December)

Event Time Altitude Azimuth Distance (km) Brightness Sun altitude
Exits shadow 06:16:44 - 297° (WNW) 1,506 3.5 -7.9°
Reaches altitude 10° 06:17:00 10° 300° (WNW) 1,419 3.4 -7.8°
Maximum altitude 06:19:31 21° 352° (N) 943 2.9 -7.3°
Drops below altitude 10° 06:22:03 10° 44° (NE) 1,422 4.6 -6.8°
Sets 06:24:28 0° 62° (ENE) 2,280 6.1 -6.3°
